Погода в Орешках

Россия / Московская область     55°43′23″N   36°21′10″E
темп.,
°C
ветер,
м/с
пор.,
м/с
влажн.,
%
обл.,
%
осадки,
мм/ч
давл.,
гПа
погр.,
м
16 мая, вс
вс1600:00+11ююз299871 0.0 1008216
03:00+11ююз31098100 0.0 1010277
06:00+11ююз3119511 0.0 1011385
09:00+16ююз59714 0.0 1011834
12:00+19ююз576621 0.8 10111483
15:00+18ююз477853 4.8 10121042
18:00+17юз368411 2.0 1012575
21:00+13юз11931 2.2 101411
17 мая, пн
пн1700:00+12зюз119439 0.0 101410
03:00+11юв119499 0.0 101511
06:00+12вюв2494100 0.0 101596
09:00+17вюв3676100 0.0 1015460
12:00+22вюв465369 0.0 10131241
15:00+24вюв585426 0.0 10121347
18:00+23вюв596846 0.0 10101039
21:00+18вюв4129043 0.8 1010341
18 мая, вт
вт1800:00+16вюв41392100 0.0 1009376
03:00+15вюв41292100 0.0 1008324
06:00+15вюв41388100 0.0 1007355
09:00+20юв5116493 0.0 1006583
12:00+24юв6135494 0.0 10061315
15:00+26юв6144788 0.0 10052006
18:00+23юв6135744 0.0 10041625
21:00+18юв4138283 0.6 1004474
19 мая, ср
ср1900:00+15ююв412920 0.5 1004564
03:00+13юв41197100 0.5 1004372
06:00+14юв5139415 0.0 1004709
09:00+15ю51089100 0.2 1004902
12:00+16ю5108592 1.3 10051163
15:00+18ююз71049100 1.3 10051965
18:00+17ю58615 0.1 10051515
21:00+12ююв412825 0.2 1006807
20 мая, чт
чт2000:00+11ю6138235 0.1 10051237
03:00+9ююз51186100 0.2 1006948
06:00+9ю5992100 0.3 1006890
09:00+10юз499191 0.4 1007841
12:00+12з6117691 0.4 10101261
15:00+14з5964100 0.5 10121321
18:00+14зюз48735 0.3 10131083
21:00+9юз279273 0.3 1015141